Tracking 19854 objects as of 23-Sep-2019
HD Live streaming from Space Station
objects crossing your sky now

DMSP 5D-2 F11 DEB

Track DMSP 5D-2 F11 DEB now!
10-day predictions


NORAD ID: 28349
Int'l Code: 1991-082BN
Perigee: 776.4 km
Apogee: 886.2 km
Inclination: 98.9 °
Period: 101.4 minutes
Semi major axis: 7202 km
RCS: 0.01 m2 (small)
Launch date: November 28, 1991
Source: United States (US)
Launch site: AIR FORCE WESTERN TEST RANGE (AFWTR)

Note: This is SATELLITE DEBRIS
aabbcc
Your satellite tracking list
Your tracking list is empty




NASA's NSSDC Master Catalog

Two Line Element Set (TLE):
1 28349U 91082BN  19265.83487701  .00000817  00000-0  39171-3 0  9997
2 28349  98.9394 258.5014 0076268 312.2191 166.2939 14.20348187788965
Source of the keplerian elements: AFSPC